Theta_e
303 304 303 304 306 307 308 309 309 311 314 311 310 311 317 319 316 317 318 316 316 319
297 298 297 298 300 301 302 303 304 305 306 306 307 307 307 304 304 305 304 302 303 304
293 294 295 295 295 295 296 298 300 301 301 300 300 301 302 302 301 301 299 298 298 297
288 289 289 290 291 292 292 293 294 296 295 295 295 296 296 296 295 295 295 294 294 293
286 286 286 286 287 288 288 289 291 292 292 291 291 291 291 291 291 291 291 292 292 290
283 283 283 284 285 285 286 287 288 289 289 288 287 287 288 288 289 289 288 288 287 287
282 282 282 283 283 284 285 285 286 287 287 287 286 285 285 286 287 287 286 286 286 285
281 281 282 282 282 282 283 283 285 285 285 285 285 284 283 283 284 284 284 284 284 283
280 280 280 280 281 281 281 282 282 282 283 283 283 284 283 282 283 282 282 282 282 283
278 278 278 279 279 279 280 281 280 280 281 280 281 282 281 280 282 281 281 280 280 280
276 275 276 276 276 277 277 278 278 278 278 277 279 280 280 279 280 280 279 279 278 278
274 273 274 273 274 275 275 276 276 276 275 275 277 279 279 278 278 277 277 278 277 277
272 272 272 272 272 273 274 273 274 274 274 274 274 277 279 278 277 276 276 277 276 276
270 270 271 271 271 272 272 272 272 272 272 273 273 274 277 278 277 276 275 275 275 276
Wind_Speed
11 7 7 8 6 6 5 5 5 6 6 6 7 6 5 4 4 5 4 4 5 3
11 11 10 10 8 7 7 6 7 8 8 8 8 7 6 5 6 5 6 6 6 5
13 12 11 11 11 10 8 8 8 9 9 9 9 9 8 6 8 6 6 5 6 6
12 12 12 11 10 10 10 10 10 10 10 10 10 10 8 8 8 8 7 8 7 7
12 12 13 12 11 10 10 10 10 10 11 10 10 10 10 9 8 9 9 8 8 9
13 12 12 12 11 11 10 11 11 11 11 11 11 10 9 8 8 9 9 9 9 9
11 11 11 10 11 10 10 10 10 10 10 10 10 10 9 9 8 8 9 8 9 10
9 9 10 10 10 10 10 9 9 9 9 9 10 9 9 8 8 8 7 8 8 10
9 9 9 9 8 8 8 8 8 8 9 9 8 13 13 8 6 7 6 6 6 6
8 8 8 8 8 8 7 7 8 7 7 9 9 13 12 9 5 5 6 7 6 6
7 7 7 7 7 7 6 6 6 6 6 6 8 12 12 9 6 6 7 7 7 7
6 6 7 7 7 6 5 5 5 6 7 6 7 11 12 7 5 5 5 4 6 6
5 6 6 6 6 6 5 5 4 5 5 6 5 10 11 7 4 4 4 3 5 6
4 5 5 5 4 4 4 5 5 5 5 5 5 6 10 9 4 4 3 4 4 4
Wind_Direction
57 68 65 54 66 72 78 60 39 59 61 54 43 34 21 22 28 8 350 355 10 318
62 65 71 67 70 71 65 67 59 58 61 51 46 40 54 51 38 46 42 32 30 17
66 66 67 66 65 63 61 60 62 63 58 53 45 40 45 43 34 48 41 38 34 29
63 63 63 62 57 57 58 55 59 60 60 56 49 40 46 52 42 49 43 36 38 34
62 62 60 56 52 50 54 52 56 63 64 58 52 46 46 47 43 43 44 37 38 31
60 59 59 55 50 47 49 51 53 57 60 56 48 45 45 51 55 56 53 47 45 34
59 59 58 57 54 52 51 55 59 59 61 56 52 44 40 41 49 59 55 51 51 40
63 61 61 58 56 54 54 54 57 64 61 56 50 38 33 38 44 49 55 55 52 49
63 61 59 59 59 60 58 57 57 60 58 55 47 31 33 26 50 52 47 49 42 46
56 59 55 55 57 55 54 60 55 54 57 53 43 29 29 20 49 49 51 44 31 38
53 56 55 56 55 56 56 56 57 59 58 58 40 26 25 20 38 47 39 33 29 23
54 57 51 49 42 34 45 50 62 52 50 50 36 25 30 20 30 33 29 43 33 15
60 65 66 54 49 38 38 39 32 50 52 53 41 18 18 33 15 17 7 11 12 4
69 77 70 76 64 64 68 69 53 48 36 34 29 17 12 5 22 7 342 343 345 329